| time (UTC) | temp F | wind direction | speed MPH | gust MPH | rain 1hr in | rain 24hr in | rain mn in | humidity % | barometer mb |
| 20260905140813 | 73 | 5 | 3.0 | 8.0 | 0.00 | 0.00 | 0.00 | 81 | 1013.5 |
| 20260905135833 | 72 | 18 | 2.0 | 9.0 | 0.00 | 0.00 | 0.00 | 82 | 1013.7 |
| 20260905134822 | 72 | 30 | 6.0 | 11.0 | 0.00 | 0.00 | 0.00 | 83 | 1013.7 |
| 20260905133818 | 72 | 26 | 3.0 | 8.0 | 0.00 | 0.00 | 0.00 | 86 | 1013.8 |
| 20260905132831 | 71 | 13 | 4.0 | 8.0 | 0.00 | 0.00 | 0.00 | 86 | 1013.8 |
| 20260905131824 | 71 | 22 | 2.0 | 9.0 | 0.00 | 0.00 | 0.00 | 86 | 1013.7 |
| 20260905130838 | 71 | 22 | 4.0 | 6.0 | 0.00 | 0.00 | 0.00 | 87 | 1013.6 |
| 20260905125822 | 71 | 19 | 4.0 | 8.0 | 0.00 | 0.00 | 0.00 | 87 | 1013.4 |
| 20260905124814 | 71 | 34 | 2.0 | 8.0 | 0.00 | 0.00 | 0.00 | 87 | 1013.2 |
| 20260905123829 | 71 | 15 | 5.0 | 9.0 | 0.00 | 0.00 | 0.00 | 87 | 1013.2 |
| 20260905122826 | 71 | 355 | 4.0 | 8.0 | 0.00 | 0.00 | 0.00 | 88 | 1013.2 |
| 20260905121840 | 70 | 26 | 3.0 | 6.0 | 0.00 | 0.00 | 0.00 | 88 | 1013.3 |
| 20260905120823 | 70 | 30 | 3.0 | 5.0 | 0.00 | 0.00 | 0.00 | 90 | 1013.4 |
| 20260905115815 | 70 | 31 | 0.0 | 4.0 | 0.00 | 0.00 | 0.00 | 91 | 1013.2 |
| 20260905114813 | 70 | 17 | 0.0 | 4.0 | 0.00 | 0.00 | 0.00 | 92 | 1013.2 |
| 20260905113826 | 70 | 26 | 0.0 | 2.0 | 0.00 | 0.00 | 0.00 | 92 | 1013.2 |
| 20260905112818 | 70 | 27 | 1.0 | 3.0 | 0.00 | 0.00 | 0.00 | 92 | 1013.2 |
| 20260905111814 | 70 | 19 | 1.0 | 3.0 | 0.00 | 0.00 | 0.00 | 92 | 1012.9 |
| 20260905110827 | 70 | 14 | 1.0 | 2.0 | 0.00 | 0.00 | 0.00 | 92 | 1012.8 |
| 20260905105815 | 70 | 22 | 0.0 | 1.0 | 0.00 | 0.00 | 0.00 | 92 | 1012.7 |
| 20260905104847 | 70 | 22 | 1.0 | 3.0 | 0.00 | 0.00 | 0.00 | 92 | 1012.6 |
| 20260905103817 | 70 | 14 | 0.0 | 2.0 | 0.00 | 0.00 | 0.00 | 92 | 1012.6 |
| 20260905102829 | 70 | 15 | 0.0 | 2.0 | 0.00 | 0.00 | 0.00 | 92 | 1012.4 |
| 20260905101842 | 70 | 15 | 0.0 | 2.0 | 0.00 | 0.00 | 0.00 | 92 | 1012.3 |
| 20260905100814 | 70 | 14 | 0.0 | 2.0 | 0.00 | 0.00 | 0.00 | 92 | 1012.3 |
| 20260905095820 | 70 | 14 | 0.0 | 3.0 | 0.00 | 0.00 | 0.00 | 92 | 1012.2 |
| 20260905094831 | 70 | 38 | 0.0 | 4.0 | 0.00 | 0.00 | 0.00 | 92 | 1012.2 |
| 20260905093824 | 71 | 21 | 1.0 | 4.0 | 0.00 | 0.00 | 0.00 | 92 | 1012.0 |
| 20260905092836 | 71 | 13 | 1.0 | 4.0 | 0.00 | 0.00 | 0.00 | 91 | 1011.9 |
| 20260905091820 | 71 | 348 | 3.0 | 5.0 | 0.00 | 0.00 | 0.00 | 91 | 1011.9 |
| 20260905090841 | 71 | 32 | 2.0 | 4.0 | 0.00 | 0.00 | 0.00 | 91 | 1011.8 |
| 20260905085842 | 71 | 355 | 0.0 | 6.0 | 0.00 | 0.00 | 0.00 | 90 | 1011.9 |
| 20260905084814 | 72 | 19 | 1.0 | 6.0 | 0.00 | 0.00 | 0.00 | 90 | 1011.8 |
| 20260905083822 | 72 | 28 | 0.0 | 0.0 | 0.00 | 0.00 | 0.00 | 90 | 1011.9 |
| 20260905082836 | 72 | 24 | 0.0 | 0.0 | 0.00 | 0.00 | 0.00 | 89 | 1011.8 |
| 20260905081819 | 72 | 10 | 0.0 | 2.0 | 0.00 | 0.00 | 0.00 | 89 | 1011.9 |
| 20260905080830 | 72 | 15 | 2.0 | 5.0 | 0.00 | 0.00 | 0.00 | 89 | 1012.0 |
| 20260905075816 | 72 | 48 | 1.0 | 5.0 | 0.00 | 0.00 | 0.00 | 89 | 1012.2 |
| 20260905074828 | 72 | 19 | 1.0 | 4.0 | 0.00 | 0.00 | 0.00 | 89 | 1012.2 |
| 20260905073822 | 73 | 22 | 1.0 | 4.0 | 0.00 | 0.00 | 0.00 | 90 | 1012.1 |
| 20260905072814 | 72 | 5 | 1.0 | 4.0 | 0.00 | 0.00 | 0.00 | 89 | 1012.2 |
| 20260905071827 | 72 | 53 | 3.0 | 5.0 | 0.00 | 0.00 | 0.00 | 90 | 1012.2 |
| 20260905070818 | 72 | 49 | 1.0 | 4.0 | 0.00 | 0.00 | 0.00 | 90 | 1012.4 |
| 20260905065824 | 72 | 78 | 0.0 | 3.0 | 0.00 | 0.00 | 0.00 | 90 | 1012.4 |
| 20260905064834 | 73 | 82 | 0.0 | 0.0 | 0.00 | 0.00 | 0.00 | 89 | 1012.4 |
| 20260905063825 | 73 | 82 | 0.0 | 0.0 | 0.00 | 0.00 | 0.00 | 89 | 1012.4 |
| 20260905062817 | 73 | 30 | 0.0 | 0.0 | 0.00 | 0.00 | 0.00 | 89 | 1012.5 |
| 20260905061830 | 73 | 30 | 0.0 | 0.0 | 0.00 | 0.00 | 0.00 | 89 | 1012.6 |
| 20260905060822 | 73 | 30 | 0.0 | 0.0 | 0.00 | 0.00 | 0.00 | 89 | 1012.5 |
| 20260905055827 | 73 | 28 | 0.0 | 0.0 | 0.00 | 0.00 | 0.00 | 89 | 1012.5 |
| 20260905054820 | 73 | 25 | 0.0 | 0.0 | 0.00 | 0.00 | 0.00 | 90 | 1012.6 |
| 20260905053831 | 72 | 22 | 0.0 | 0.0 | 0.00 | 0.00 | 0.00 | 90 | 1012.8 |
| 20260905052814 | 72 | 22 | 0.0 | 0.0 | 0.00 | 0.00 | 0.00 | 90 | 1013.0 |
| 20260905051824 | 72 | 22 | 0.0 | 0.0 | 0.00 | 0.00 | 0.00 | 91 | 1012.9 |
| 20260905050901 | 72 | 22 | 0.0 | 0.0 | 0.00 | 0.00 | 0.00 | 92 | 1012.9 |
| 20260905045827 | 71 | 22 | 0.0 | 0.0 | 0.00 | 0.00 | 0.00 | 92 | 1013.0 |
| 20260905044819 | 71 | 22 | 0.0 | 0.0 | 0.00 | 0.00 | 0.00 | 92 | 1013.1 |
| 20260905043832 | 71 | 22 | 0.0 | 0.0 | 0.00 | 0.00 | 0.00 | 92 | 1013.0 |
| 20260905042842 | 72 | 22 | 0.0 | 0.0 | 0.00 | 0.00 | 0.00 | 92 | 1013.1 |
| 20260905041825 | 72 | 22 | 0.0 | 0.0 | 0.00 | 0.00 | 0.00 | 92 | 1013.2 |
| 20260905040817 | 72 | 22 | 0.0 | 0.0 | 0.00 | 0.00 | 0.00 | 92 | 1013.3 |
| 20260905035822 | 72 | 22 | 0.0 | 0.0 | 0.00 | 0.01 | 0.00 | 92 | 1013.3 |
| 20260905034815 | 73 | 22 | 0.0 | 0.0 | 0.00 | 0.01 | 0.00 | 92 | 1013.4 |
| 20260905033827 | 73 | 22 | 0.0 | 0.0 | 0.00 | 0.01 | 0.00 | 92 | 1013.5 |
| 20260905032820 | 73 | 22 | 0.0 | 0.0 | 0.00 | 0.01 | 0.00 | 92 | 1013.5 |
| 20260905031852 | 73 | 22 | 0.0 | 0.0 | 0.00 | 0.01 | 0.00 | 92 | 1013.3 |
| 20260905030827 | 74 | 22 | 0.0 | 0.0 | 0.00 | 0.01 | 0.00 | 92 | 1013.4 |
| 20260905025819 | 74 | 22 | 0.0 | 0.0 | 0.00 | 0.11 | 0.00 | 92 | 1013.3 |
| 20260905024813 | 74 | 22 | 0.0 | 0.0 | 0.00 | 0.11 | 0.00 | 92 | 1013.3 |
| 20260905023851 | 74 | 22 | 0.0 | 0.0 | 0.00 | 0.11 | 0.00 | 92 | 1013.1 |
| 20260905022828 | 75 | 22 | 0.0 | 0.0 | 0.00 | 0.11 | 0.00 | 91 | 1013.1 |
| 20260905021845 | 75 | 22 | 0.0 | 0.0 | 0.00 | 0.11 | 0.00 | 91 | 1013.1 |
| 20260905020824 | 75 | 22 | 0.0 | 0.0 | 0.00 | 0.11 | 0.00 | 91 | 1013.0 |
| 20260905015814 | 75 | 22 | 0.0 | 0.0 | 0.00 | 0.11 | 0.00 | 90 | 1012.9 |
| 20260905014831 | 76 | 22 | 0.0 | 0.0 | 0.00 | 0.11 | 0.00 | 90 | 1013.0 |
| 20260905013818 | 76 | 22 | 0.0 | 0.0 | 0.00 | 0.11 | 0.00 | 90 | 1012.8 |
| 20260905012835 | 76 | 22 | 0.0 | 0.0 | 0.00 | 0.11 | 0.00 | 89 | 1012.9 |
| 20260905011828 | 76 | 22 | 0.0 | 0.0 | 0.00 | 0.11 | 0.00 | 88 | 1012.9 |
| 20260905010826 | 76 | 22 | 0.0 | 0.0 | 0.00 | 0.11 | 0.00 | 88 | 1012.9 |
| 20260905005817 | 77 | 22 | 0.0 | 0.0 | 0.00 | 0.11 | 0.00 | 87 | 1012.9 |
| 20260905004816 | 77 | 22 | 0.0 | 0.0 | 0.00 | 0.11 | 0.00 | 87 | 1012.8 |
| 20260905003834 | 77 | 22 | 0.0 | 0.0 | 0.00 | 0.11 | 0.00 | 87 | 1012.8 |
| 20260905002830 | 77 | 22 | 0.0 | 0.0 | 0.00 | 0.11 | 0.00 | 87 | 1013.0 |
| 20260905001818 | 77 | 22 | 0.0 | 0.0 | 0.00 | 0.11 | 0.00 | 86 | 1012.7 |
| 20260905000816 | 78 | 22 | 0.0 | 0.0 | 0.00 | 0.11 | 0.00 | 86 | 1012.7 |
| 20260904235826 | 78 | 22 | 0.0 | 0.0 | 0.00 | 0.11 | 0.00 | 85 | 1012.6 |
| 20260904234825 | 78 | 22 | 0.0 | 0.0 | 0.00 | 0.11 | 0.00 | 85 | 1012.8 |
| 20260904233824 | 78 | 22 | 0.0 | 0.0 | 0.00 | 0.11 | 0.00 | 85 | 1012.8 |
| 20260904232843 | 79 | 22 | 0.0 | 0.0 | 0.00 | 0.11 | 0.00 | 85 | 1013.1 |
| 20260904231840 | 79 | 22 | 0.0 | 0.0 | 0.00 | 0.11 | 0.00 | 84 | 1013.1 |
| 20260904230838 | 79 | 22 | 0.0 | 0.0 | 0.00 | 0.11 | 0.00 | 83 | 1012.9 |
| 20260904225824 | 79 | 22 | 0.0 | 0.0 | 0.00 | 0.11 | 0.00 | 82 | 1012.8 |
| 20260904224824 | 80 | 22 | 0.0 | 0.0 | 0.00 | 0.11 | 0.00 | 83 | 1012.8 |
| 20260904223820 | 80 | 22 | 0.0 | 0.0 | 0.00 | 0.11 | 0.00 | 82 | 1012.7 |
| 20260904222832 | 81 | 22 | 0.0 | 0.0 | 0.00 | 0.11 | 0.00 | 82 | 1012.9 |
| 20260904221826 | 81 | 22 | 0.0 | 0.0 | 0.00 | 0.11 | 0.00 | 81 | 1013.1 |
| 20260904220817 | 81 | 22 | 0.0 | 0.0 | 0.00 | 0.11 | 0.00 | 82 | 1013.0 |
| 20260904215835 | 82 | 22 | 0.0 | 0.0 | 0.00 | 0.11 | 0.00 | 82 | 1013.1 |
| 20260904214822 | 81 | 22 | 0.0 | 0.0 | 0.00 | 0.11 | 0.00 | 79 | 1013.0 |
| 20260904213835 | 82 | 22 | 0.0 | 0.0 | 0.00 | 0.11 | 0.00 | 80 | 1013.2 |
| 20260904212839 | 81 | 22 | 0.0 | 0.0 | 0.00 | 0.11 | 0.00 | 80 | 1013.4 |
| 20260904211825 | 82 | 22 | 0.0 | 0.0 | 0.00 | 0.11 | 0.00 | 77 | 1013.3 |
| 20260904210821 | 82 | 22 | 0.0 | 0.0 | 0.00 | 0.11 | 0.00 | 78 | 1013.5 |
| 20260904205831 | 82 | 22 | 0.0 | 0.0 | 0.00 | 0.11 | 0.00 | 77 | 1013.6 |
| 20260904204827 | 83 | 22 | 0.0 | 0.0 | 0.00 | 0.11 | 0.00 | 76 | 1013.9 |
| 20260904203820 | 83 | 21 | 0.0 | 1.0 | 0.00 | 0.11 | 0.00 | 76 | 1013.6 |
| 20260904202833 | 83 | 21 | 0.0 | 4.0 | 0.00 | 0.11 | 0.00 | 76 | 1013.8 |
| 20260904201817 | 82 | 5 | 2.0 | 4.0 | 0.00 | 0.11 | 0.00 | 76 | 1013.8 |
| 20260904200841 | 82 | 28 | 2.0 | 5.0 | 0.00 | 0.11 | 0.00 | 75 | 1014.0 |
| 20260904195846 | 83 | 11 | 1.0 | 6.0 | 0.00 | 0.11 | 0.00 | 74 | 1013.8 |
| 20260904194815 | 83 | 44 | 4.0 | 9.0 | 0.00 | 0.11 | 0.00 | 73 | 1013.3 |
| 20260904193830 | 84 | 29 | 3.0 | 9.0 | 0.00 | 0.11 | 0.00 | 73 | 1013.6 |
| 20260904192848 | 84 | 59 | 4.0 | 11.0 | 0.00 | 0.11 | 0.00 | 72 | 1013.7 |
| 20260904191823 | 84 | 329 | 4.0 | 11.0 | 0.00 | 0.11 | 0.00 | 72 | 1014.1 |
| 20260904190838 | 84 | 15 | 6.0 | 14.0 | 0.00 | 0.11 | 0.00 | 72 | 1014.3 |
| 20260904185823 | 83 | 360 | 2.0 | 6.0 | 0.00 | 0.11 | 0.00 | 75 | 1014.6 |
| 20260904184836 | 83 | 351 | 3.0 | 9.0 | 0.00 | 0.11 | 0.00 | 74 | 1014.7 |
| 20260904183820 | 84 | 355 | 3.0 | 12.0 | 0.00 | 0.11 | 0.00 | 74 | 1014.9 |
| 20260904182842 | 84 | 31 | 4.0 | 11.0 | 0.00 | 0.11 | 0.00 | 72 | 1014.8 |
| 20260904181853 | 83 | 5 | 5.0 | 8.0 | 0.00 | 0.11 | 0.00 | 74 | 1014.8 |
| 20260904180816 | 83 | 243 | 1.0 | 5.0 | 0.00 | 0.11 | 0.00 | 75 | 1014.9 |
| 20260904175832 | 83 | 13 | 3.0 | 8.0 | 0.00 | 0.11 | 0.00 | 74 | 1014.7 |
| 20260904174816 | 82 | 41 | 1.0 | 6.0 | 0.00 | 0.11 | 0.00 | 74 | 1014.8 |
| 20260904173831 | 82 | 165 | 1.0 | 6.0 | 0.00 | 0.11 | 0.00 | 73 | 1014.9 |
| 20260904172826 | 82 | 13 | 2.0 | 5.0 | 0.00 | 0.11 | 0.00 | 77 | 1014.9 |
| 20260904171838 | 81 | 42 | 3.0 | 8.0 | 0.00 | 0.11 | 0.00 | 78 | 1015.0 |
| 20260904170832 | 81 | 80 | 4.0 | 7.0 | 0.00 | 0.11 | 0.00 | 76 | 1015.1 |
| 20260904165820 | 81 | 51 | 5.0 | 12.0 | 0.00 | 0.11 | 0.00 | 76 | 1015.0 |
| 20260904164837 | 80 | 48 | 2.0 | 9.0 | 0.00 | 0.11 | 0.00 | 77 | 1015.1 |
| 20260904163814 | 80 | 258 | 2.0 | 5.0 | 0.00 | 0.11 | 0.00 | 79 | 1015.2 |
| 20260904162846 | 79 | 115 | 2.0 | 8.0 | 0.00 | 0.11 | 0.00 | 77 | 1015.2 |
| 20260904161821 | 79 | 13 | 4.0 | 9.0 | 0.00 | 0.11 | 0.00 | 78 | 1015.4 |
| 20260904160817 | 79 | 32 | 2.0 | 12.0 | 0.00 | 0.11 | 0.00 | 80 | 1015.4 |
| 20260904155828 | 78 | 42 | 6.0 | 12.0 | 0.00 | 0.12 | 0.00 | 79 | 1015.3 |
| 20260904154817 | 78 | 55 | 4.0 | 8.0 | 0.00 | 0.12 | 0.00 | 80 | 1015.5 |
| 20260904153833 | 78 | 35 | 4.0 | 13.0 | 0.00 | 0.12 | 0.00 | 78 | 1015.5 |
| 20260904152818 | 78 | 45 | 3.0 | 8.0 | 0.00 | 0.12 | 0.00 | 79 | 1015.6 |
| 20260904151813 | 78 | 66 | 6.0 | 10.0 | 0.00 | 0.12 | 0.00 | 79 | 1015.5 |
| 20260904150829 | 77 | 42 | 6.0 | 11.0 | 0.00 | 0.12 | 0.00 | 81 | 1015.5 |
| 20260904145818 | 77 | 67 | 5.0 | 10.0 | 0.00 | 0.12 | 0.00 | 82 | 1015.6 |
| 20260904144814 | 77 | 41 | 5.0 | 11.0 | 0.00 | 0.12 | 0.00 | 82 | 1015.5 |
| 20260904143829 | 76 | 37 | 2.0 | 9.0 | 0.00 | 0.12 | 0.00 | 82 | 1015.4 |
| 20260904142825 | 76 | 42 | 3.0 | 10.0 | 0.00 | 0.12 | 0.00 | 83 | 1015.5 |
| 20260904141813 | 76 | 355 | 3.0 | 11.0 | 0.00 | 0.12 | 0.00 | 83 | 1015.4 |